CDT,Max TemperatureF,Mean TemperatureF,Min TemperatureF,Max Dew PointF,MeanDew PointF,Min DewpointF,Max Humidity, Mean Humidity, Min Humidity, Max Sea Level PressureIn, Mean Sea Level PressureIn, Min Sea Level PressureIn, Max VisibilityMiles, Mean VisibilityMiles, Min VisibilityMiles, Max Wind SpeedMPH, Mean Wind SpeedMPH, Max Gust SpeedMPH,PrecipitationIn, CloudCover, Events, WindDirDegrees
2012-10-1,79,66,54,46,38,27,66,41,18,29.94,29.91,29.88,10,10,10,21,6,28,0.00,0,,350
2012-10-2,76,61,46,48,39,35,67,46,22,29.97,29.93,29.87,10,10,7,12,7,,0.00,0,,346
2012-10-3,82,64,47,45,36,22,74,40,11,29.96,29.91,29.86,10,10,7,17,5,24,0.00,0,,176
2012-10-4,66,56,45,44,37,30,85,53,33,30.27,30.12,29.93,10,10,10,30,13,45,0.05,2,Rain,290
2012-10-5,52,43,34,31,24,14,79,49,23,30.28,30.24,30.19,10,10,10,20,10,25,0.00,0,,289
2012-10-6,45,38,32,27,24,19,70,55,43,30.31,30.27,30.23,10,10,10,18,9,26,0.00,4,,314
2012-10-7,57,41,25,27,21,15,79,47,19,30.28,30.17,30.03,10,10,10,16,6,21,0.00,0,,245
2012-10-8,70,56,42,33,29,24,67,40,19,30.02,29.90,29.80,10,10,10,22,12,33,0.00,0,,204
2012-10-9,58,50,41,44,35,30,80,56,44,30.08,29.92,29.80,10,10,10,22,9,29,0.01,2,Rain,274
2012-10-10,61,46,32,30,24,14,82,47,16,30.22,30.13,30.05,10,10,10,16,8,21,0.00,0,,250
2012-10-11,64,51,39,34,30,24,57,42,28,30.36,30.13,30.02,10,10,10,21,13,25,0.00,0,,295
2012-10-12,61,46,30,46,23,8,79,48,13,30.42,30.31,30.06,10,10,10,22,10,25,0.04,2,Rain,89
2012-10-13,76,64,53,66,59,47,91,81,62,30.01,29.80,29.65,10,8,2,20,10,24,0.33,8,Rain,177
2012-10-14,64,59,50,64,49,38,90,71,45,29.94,29.75,29.58,10,9,3,25,13,33,0.54,4,Rain,315
2012-10-15,70,55,40,46,40,36,84,59,33,30.01,29.93,29.83,10,10,10,12,6,,0.00,0,,192
2012-10-16,76,62,49,51,47,44,82,59,35,29.82,29.56,29.44,10,10,10,14,8,18,0.00,0,,191
2012-10-17,65,58,50,54,44,32,85,58,40,29.49,29.42,29.33,10,10,7,28,12,36,0.06,4,Rain,252
2012-10-18,51,47,43,46,40,31,89,77,45,29.45,29.38,29.33,10,8,2,28,16,47,0.42,8,Rain,276
2012-10-19,50,48,45,46,44,42,90,87,81,29.78,29.63,29.44,10,7,2,17,13,28,0.02,8,Rain,301
2012-10-20,59,52,46,47,44,43,88,81,63,29.86,29.82,29.78,10,10,10,9,5,,0.00,5,,153
2012-10-21,79,62,45,60,50,42,89,76,48,29.84,29.82,29.79,10,10,7,14,9,17,0.00,1,,130
2012-10-22,79,70,62,66,64,58,90,80,63,29.84,29.81,29.78,10,8,2,22,7,32,0.06,5,Rain,126
2012-10-23,75,68,60,66,63,57,89,83,71,29.80,29.76,29.70,10,8,3,15,8,17,0.00,5,Rain,160
2012-10-24,78,67,55,68,63,53,91,84,61,29.80,29.75,29.69,10,5,1,16,7,22,0.00,7,Rain,170
2012-10-25,55,47,39,52,39,27,90,79,60,30.28,29.90,29.61,10,9,2,25,16,38,0.43,8,Rain,326
2012-10-26,45,39,34,31,28,25,82,62,51,30.45,30.39,30.28,10,10,10,14,9,21,0.00,7,,300
2012-10-27,46,40,34,29,25,21,74,57,40,30.41,30.35,30.29,10,10,10,7,4,,0.00,3,,6
2012-10-28,50,41,32,29,25,20,79,57,31,30.37,30.31,30.27,10,10,4,9,3,,0.00,2,,130
2012-10-29,53,44,34,32,29,24,74,60,39,30.31,30.26,30.18,10,10,10,20,8,23,0.00,3,,130
2012-10-30,53,42,31,30,28,24,77,58,36,30.19,30.11,30.04,10,10,10,13,6,,0.00,1,,27
2012-10-31,56,44,31,32,26,19,84,55,26,30.07,30.02,29.98,10,10,10,9,6,,0.00,1,,322